Tracking 29892 objects as of 21-Nov-2024
HD Live streaming from Space Station
objects crossing your sky now

RELAY 2

Track RELAY 2 now!
10-day predictions
RELAY 2 is classified as:


NORAD ID: 737
Int'l Code: 1964-003A
Perigee: 1,867.3 km
Apogee: 7,647.3 km
Inclination: 46.5 °
Period: 194.7 minutes
Semi major axis: 11128 km
RCS: 0.7112 m2 (medium)
Launch date: January 21, 1964
Source: United States (US)
Launch site: AIR FORCE EASTERN TEST RANGE (AFETR)
Your satellite tracking list
Your tracking list is empty




NASA's NSSDC Master Catalog

Two Line Element Set (TLE):
1 00737U 64003A   24325.28116511 -.00000025  00000-0  00000-0 0  9999
2 00737  46.4531 271.7155 2596980  97.7292 292.2697  7.39538943643635
Source of the keplerian elements: AFSPC